Location: Utrecht
(52.0907°N, 5.1214°E)
Time: 11:53:21
(UTC+02:00)

NANOSAT C BR1 - Pass Details

Date: 30 June 2022
Orbit: 584 x 599 km, 98.0° (Epoch: 13 August)

Event Time Altitude Azimuth Distance (km) Brightness Sun altitude
Rises 03:01:53 0° 23° (NNE) 2,849 ? -12.8°
Reaches altitude 10° 03:04:23 10° 37° (NE) 1,944 ? -12.7°
Maximum altitude 03:07:53 25° 94° (E) 1,220 ? -12.5°
Drops below altitude 10° 03:11:23 10° 150° (SSE) 1,937 ? -12.3°
Enters shadow 03:11:53 - 154° (SSE) 2,109 ? -12.3°
